Regional Weather Roundup
Issued by NWS

Home | Current Version | Previous Version | Text Only | Print | Product List | Glossary Off
Versions: 1 2 3 4 5 6 7 8 9 10 11 12 13 14 15 16 17 18 19 20 21 22 23 24 25 26 27 28 29 30 31 32 33 34 35 36 37 38 39 40 41 42 43 44 45 46 47 48 49 50

000
ASUS43 KIND 241109
RWRIN

WEATHER ROUNDUP FOR INDIANA
NATIONAL WEATHER SERVICE INDIANAPOLIS IN
700 AM EDT TUE MAY 24 2016

NOTE: "FAIR" INDICATES FEW OR NO CLOUDS BELOW 12,000 FEET WITH NO
SIGNIFICANT WEATHER AND/OR OBSTRUCTIONS TO VISIBILITY.

* - STATION DOES NOT REPORT WEATHER SUCH AS PRECIPITATION OR FOG.

+ - STATION NOT QUALITY CONTROLLED BY THE NATIONAL WEATHER SERVICE.
    USE DATA WITH CAUTION...ESPECIALLY DEWPOINT AND RELATIVE
    HUMIDITY OBSERVATIONS.

INZ001>003-010>013-019-020-241200-
NORTHWEST INDIANA

CITY           SKY/WX    TMP DP  RH WIND       PRES   REMARKS
GARY /AIRPORT/ PTCLDY    64  50  59 S6        30.00R
KNOX *+        CLEAR     55  32  41 CALM      30.02R
LA PORTE +     CLEAR     55  45  70 CALM      30.02S
MICHIGAN CITY+ CLEAR     61  43  51 SW7       30.01S
MONTICELLO +   CLOUDY    58  39  48 S5        30.02S
RENSSELAER +   PTCLDY    59  43  55 S6        30.02R
VALPARAISO     CLEAR     57  41  55 CALM      30.02R

$$

LMZ046-743>745-241200-
SOUTHERN LAKE MICHIGAN

STATION/POSITION TIME  TEMP    WIND        PRES    WAVE
                       AIR SEA DIR/SP/G            HT
                 (UTC) (F)     (DEG/KT/KT) (MB)    (FT)
BURNS HARBOR     1001   63     190/ 11/ 16 1015.9R
MICHIGAN CITY    1000   65     160/ 14/ 16   N/A
5NW MICH CITY    1100   62 56  200/  8/ 10   N/A     1

$$

INZ004-005-014>016-021>024-241200-
NORTH CENTRAL INDIANA

CITY           SKY/WX    TMP DP  RH WIND       PRES   REMARKS
ELKHART        CLEAR     50  46  87 MISG      30.03
GOSHEN         CLEAR     50  39  66 S3        30.03R
LOGANSPORT +   CLEAR     54  43  66 S3        30.05R
PERU/GRISSOM   CLEAR     54  44  69 S7        30.04R
ROCHESTER +    CLEAR     61  43  51 S5        30.04R
SOUTH BEND     CLEAR     56  41  57 SW8       30.03R
WARSAW +       CLEAR     48  41  76 CALM      30.04R

$$

INZ006>009-017-018-025>027-241200-
NORTHEAST INDIANA

CITY           SKY/WX    TMP DP  RH WIND       PRES   REMARKS
ANGOLA *+      CLEAR     46  45  93 CALM      30.04R
AUBURN +       CLEAR     46  43  87 CALM      30.05R
FORT WAYNE     PTCLDY    52  45  77 S3        30.06R
HUNTINGTON +   CLEAR     50  46  88 CALM      30.05R

$$

INZ028-029-035-036-043>045-051>053-241200-
WEST CENTRAL INDIANA

CITY           SKY/WX    TMP DP  RH WIND       PRES   REMARKS
CRAWFORDSVL +  CLEAR     51  46  83 SE5       30.05R
GREENCASTLE +  PTCLDY    52  48  87 CALM      30.06S
LAFAYETTE      CLOUDY    52  45  77 CALM      30.03R
TERRE HAUTE    PTCLDY    55  47  74 SE3       30.04S

$$

INZ030>032-037>040-046>048-054>057-064-065-241200-
CENTRAL INDIANA

CITY           SKY/WX    TMP DP  RH WIND       PRES   REMARKS
CP ATTERBURY + CLEAR     45  43  93 CALM      30.07S
COLUMBUS       CLEAR     48  48 100 CALM      30.07
FISHERS *+     CLEAR     50  48  93 CALM      30.07R
FRANKFORT +      N/A     53  39  58 CALM      30.06R
GREENWOOD *+   CLEAR     54  46  76 CALM      30.07R
INDIANAPOLIS   MOCLDY    56  46  69 CALM      30.05R
-EAGLE CREEK   CLEAR     52  48  86 CALM      30.06R
KOKOMO *+      CLEAR     54  41  62 S6        30.05R
MARION +       CLEAR     52  46  78 CALM      30.06R
SHELBYVILLE    CLEAR     52  48  86 SE5       30.07R
ZIONSVILLE +   CLEAR     51  44  76 S3        30.07R

$$

INZ033-034-041-042-049-050-058-059-241200-
EAST CENTRAL INDIANA

CITY           SKY/WX    TMP DP  RH WIND       PRES   REMARKS
MUNCIE         CLEAR     58  48  69 S5        30.07R

$$

INZ060-061-067>069-081>083-085>088-241200-
SOUTHWEST INDIANA

CITY           SKY/WX    TMP DP  RH WIND       PRES   REMARKS
EVANSVILLE     CLOUDY    54  50  86 CALM      30.06R
HUNTINGBURG *+ MOCLDY    54  46  76 SE5       30.06S
WASHINGTON +   MOCLDY    55  53  91 SE3       30.05R

$$

INZ062-063-066-070>080-084-089>092-241200-
SOUTH CENTRAL AND SOUTHEAST INDIANA

CITY           SKY/WX    TMP DP  RH WIND       PRES   REMARKS
BEDFORD +      CLEAR     50  50 100 CALM      30.07R
BLOOMINGTON    CLOUDY    49  46  90 CALM      30.06R
MADISON *+     CLEAR     50  48  93 CALM      30.11R
NORTH VERNON + CLEAR    N/A N/A N/A CALM      30.09R
SEYMOUR +      CLEAR     54  52  94 CALM      30.07R FOG

$$





USA.gov is the U.S. government's official web portal to all federal, state and local government web resources and services.